Regional Weather Roundup
Issued by NWS Newport/Morehead, NC

Current Version | Previous Version | Text Only | Print | Product List | Glossary On
Versions: 1 2 3 4 5 6 7 8 9 10 11 12 13 14 15 16 17 18 19 20 21 22 23 24 25 26 27 28 29 30 31 32 33 34 35 36 37 38 39 40 41 42 43 44 45 46 47 48 49 50
000
ASUS42 KMHX 270313
RWRMHX
WEATHER ROUNDUP FOR EASTERN NORTH CAROLINA
NATIONAL WEATHER SERVICE NEWPORT/MOREHEAD CITY NC
1100 PM EDT TUE MAY 26 2015

NOTE: "FAIR" INDICATES FEW OR NO CLOUDS BELOW 12,000 FEET
WITH NO SIGNIFICANT WEATHER AND/OR OBSTRUCTIONS TO VISIBILITY

NCZ015>017-031-032-045>047-102-103-270400-
NORTH COAST

CITY           SKY/WX    TMP DP  RH WIND       PRES   REMARKS
EDENTON        CLEAR     72  66  80 S10       30.27S
ELIZABETH CITY CLEAR     72  65  78 S10       30.27F
KITTY HAWK     CLEAR     73  65  77 S8        30.27F
MANTEO         CLEAR     73  66  78 SW15      30.29S

$$

NCZ045>047-081-094-103-104-270400-
CENTRAL COAST

CITY           SKY/WX    TMP DP  RH WIND       PRES   REMARKS
FRISCO         CLEAR     73  62  68 S14G21    30.30S
SWANQUARTER      N/A     73 N/A N/A S17       30.24F

$$

NCZ095-097-098-100-101-270400-
SOUTHERN COAST

CITY           SKY/WX    TMP DP  RH WIND       PRES   REMARKS
BEAUFORT       PTCLDY    74  66  76 S12       30.29S
CEDAR ISLAND     N/A     73 N/A N/A SE7G14    30.33S
JACKSONVILLE   PTCLDY    74  67  78 S9        30.27R
PINEY ISLAND   CLEAR    N/A N/A N/A S6        30.29S
WILMINGTON     CLOUDY    76  69  79 S9        30.28R


$$

NCZ011>013-027>030-043-044-078>080-089-090>093-098-270400-
COASTAL PLAIN

CITY           SKY/WX    TMP DP  RH WIND       PRES   REMARKS
AHOSKIE        PTCLDY    72  67  82 S8        30.25R
CLINTON        PTCLDY    73  72  94 S3        30.27R
ELIZABETHTOWN  MOCLDY    74  70  88 SE3       30.26R
GOLDSBORO      CLOUDY    74  69  86 S2        30.24R
GREENVILLE     CLEAR     73  70  88 S9        30.26S
HAVELOCK       PTCLDY    72  66  81 SE8       30.29S
KENANSVILLE    PTCLDY    72  68  86 SE5       30.27S
KINSTON        CLEAR     73  68  83 S6        30.27R
NEW BERN       PTCLDY    72  66  81 S6        30.29R
RICHLANDS      PTCLDY    72  64  78 S7        30.28S
ROCKY MOUNT    PTCLDY    74  69  85 S8        30.24R
WASHINGTON     CLEAR     72  67  82 S7        30.27S
WHITEVILLE     CLOUDY    74  68  80 SE3       30.26S

$$

AMZ130-135-150-152-154-156-158-170-250-252-270-ANZ085-086-088-633-658-670-270400-
MARINE OBSERVATIONS

STATION/POSITION TIME  TEMP    WIND        PRES    WAVE   SWELL
                       AIR SEA DIR/SP/G            HT/PER HT/PER
                 (UTC) (F)     (DEG/KT/KT) (MB)    (FT/S) (FT/S)
CHESAPEAKE LIGHT 0200   68     180/ 25/ 25 1024.4
64 E VA BEACH    0250   66 63  180/ 10/ 12 1025.3    3/ 6   2/ 6
DUCK             0200   73 60  190/ 15/ 21 1024.2
2 E DUCK         0211      62                N/A     2/ 6
OREGON INLET     0200   74 78  180/ 16/ 19 1025.6
13E OREGON INLT  0200      68                N/A     3/ 5
HATTERAS CG      0200   74 76  170/ 11/ 15 1025.5
DIAMOND BUOY     0250   74 76  180/ 17/ 21 1025.8    3/ 5   2/ 9
CAPE LOOKOUT     0300   74     170/ 14/ 16 1025.7
BEAUFORT LAB     0200   75 76  180/ 13/ 15 1024.8
27 SE WRIGHTSVLE 0200   73 76  180/ 12/ 16   N/A
5 SE WRIGHTSVLE  0208   76 76  170/ 16/ 21 1024.7
225 S CAPE HAT   0250   73 74  120/ 12/ 14 1026.5    4/ 7   3/ 7
41 SE CHARLESTON 0250   78 76  160/ 12/ 14 1024.6    4/ 7   2/ 7

$$


USA.gov is the U.S. government's official web portal to all federal, state and local government web resources and services.